KHCD Airport (Hutchinson Muni-Butler Field) Information

FAA: HCD - ICAO: KHCD

KHCD Airport Location

State Minnesota
County Mc Leod
City Hutchinson
KHCD Airport is 2 miles south of Hutchinson, MN.
Latitude 44-51-35.6000N
Longitude 094-22-57.0000W
Elevation 1,062ft

KHCD Airport METARs

METAR KHCD 072015Z AUTO 34006KT 10SM CLR M08/M14 A3042 RMK AO2 T10821136
Altimeter 30.42"
Temperature -8.2°C (17.2°F)
Wind 340° at 6KT
Clouds Skies are clear.
Visibility 10.0mi
Time observed: 2022-12-07T20:15:00Z

KHCD Airport Details

Status Operational
Activation September 1964
Ownership Public
Usage Public
Chart TWIN CITIES
ATC on-site No
Beacon schedule sunset-sunrise
Beacon color clear green

KHCD Airport Contacts

Owner CITY OF HUTCHINSON
Owner address 111 HASSAN ST, HUTCHINSON, MN 55350
Owner phone 320-587-5151
Manager LISA JETVIG
Manager address P.O. BOX 69, HAWLEY, MN 56549
Manager phone 218-483-3331

KHCD Airport (Hutchinson Muni-Butler Field) Radio Frequencies

KHCD (Airport) Radio Frequencies

UNICOM 122.8
Common traffic advisory frequency (CTAF) 122.8